Regional Weather Roundup
Issued by NWS

Home | Current Version | Previous Version | Text Only | Print | Product List | Glossary Off
Versions: 1 2 3 4 5 6 7 8 9 10 11 12 13 14 15 16 17 18 19 20 21 22 23 24 25 26 27 28 29 30 31 32 33 34 35 36 37 38 39 40 41 42 43 44 45 46 47 48 49 50

809
ASUS43 KLSX 111307
RWRMO

WEATHER SUMMARY FOR MISSOURI
NATIONAL WEATHER SERVICE SPRINGFIELD MO
700 AM CST THU FEB 11 2016

NOTE: "FAIR" INDICATES FEW OR NO CLOUDS BELOW 12,000 FEET WITH NO
       SIGNIFICANT WEATHER AND/OR OBSTRUCTIONS TO VISIBILITY.
       CURRENT SKY AND/OR WEATHER CONDITIONS ARE NOT AVAILABLE FOR
       CHILLICOTHE AND FARMINGTON.

MOZ001>031-035>038-043-044-053-054-111400-
...NORTHERN AND WESTERN MISSOURI...

CITY           SKY/WX    TMP DP  RH WIND       PRES   REMARKS
KANSAS CTY INT CLOUDY    20  17  88 NE7       30.25R WCI  11
KANSAS C DTWN  CLOUDY    23  18  81 NE7       30.26R WCI  15
LEE`S SUMMIT   PTCLDY    21  17  84 NE12      30.24R WCI   9
ST JOSEPH      PTCLDY    21  17  84 NE9       30.29R WCI  11
CHILLICOTHE      N/A     22  15  75 NE10      30.31R WCI  11
KIRKSVILLE     CLOUDY    13   7  77 NE10      30.29R WCI   0

$$
MOZ066>068-077>081-088>096-101>105-111400-
...SOUTHWEST MISSOURI...

CITY           SKY/WX    TMP DP  RH WIND       PRES   REMARKS
SPRINGFIELD    CLEAR     24  16  71 NE10      30.15R WCI  14
JOPLIN         CLEAR     26  20  77 NE9       30.17R WCI  17

$$
MOZ032>034-039>042-045>050-055>058-069>072-111400-
...CENTRAL MISSOURI...

CITY           SKY/WX    TMP DP  RH WIND       PRES   REMARKS
COLUMBIA       CLOUDY    21  16  81 NE12      30.24R WCI   9
JEFFERSON CITY CLOUDY    24  18  77 NE3       30.25S
ROLLA          CLEAR     21  17  84 NE8       30.19R WCI  11
SEDALIA        CLEAR     22  17  81 NE7       30.24R WCI  13
WHITEMAN AFB   PTCLDY    20  17  89 NE7       30.23R WCI  11
WARRENSBURG    CLEAR     21  19  93 N8        30.25R WCI  12
OSAGE BEACH    CLOUDY    19  12  73 NE5       30.21R WCI  13

$$
MOZ051-052-059>065-111400-
...EAST CENTRAL MISSOURI...

CITY           SKY/WX    TMP DP  RH WIND       PRES   REMARKS
ST LOUIS INTL  CLOUDY    23  15  71 NE7       30.29R WCI  15
SPIRIT OF STL  CLOUDY    22  16  78 NE6       30.28R WCI  14
ST CHARLES     CLOUDY    21  16  81 NE9       30.30R WCI  11

$$
MOZ072>076-082>087-097>100-106>115-111400-
...SOUTH CENTRAL AND SOUTHEAST MISSOURI...

CITY           SKY/WX    TMP DP  RH WIND       PRES   REMARKS
CAPE GIRARDEAU CLOUDY    26  19  74 NE9       30.25R WCI  17
FARMINGTON     CLOUDY    22  19  89 NE8       30.23R WCI  12
POPLAR BLUFF   CLEAR     24  19  81 NE10      30.21R WCI  14
WEST PLAINS    CLOUDY    21  12  68 NE10      30.15R WCI  10

$$



USA.gov is the U.S. government's official web portal to all federal, state and local government web resources and services.